Вернуться в каталог

FENGYUN 1C DEB

АктивенSSO
NORAD 37906·DEBRIS·🇨🇳 China

Запущен May 10, 1999 с Taiyuan Satellite Launch Center

Loading…

Ближайшие Пролёты (ближайшие 24 часа)

TLE

УстаревающийSource: Space-Track

Эпоха: Sep 4, 2026, 09:13 UTC

1 37906U 99025ENF 26247.38455071  .00000123  00000-0  14419-3 0  9992
2 37906  99.5759 297.1806 0163274  50.4474  14.0547 13.81078273631226

Отслеживайте FENGYUN 1C DEB в реальном времени с AllMySat

Download on the App Store